Vorticity
nan nan nan nan nan nan nan nan nan nan nan nan nan nan nan nan nan nan nan nan nan nan nan nan nan nan nan nan nan nan nan nan
nan 16 9 14 18 9 6 12 11 8 6 10 8 13 13 20 8 6 9 9 20 10 6 10 7 8 9 9 8 7 8 nan
nan 3 15 23 8 5 9 14 20 5 12 10 22 14 5 8 13 20 17 14 8 9 11 10 7 9 8 8 8 7 10 nan
nan 20 9 6 1 4 8 11 14 7 4 5 11 18 15 8 15 9 8 20 9 13 20 17 10 10 11 8 7 9 10 nan
nan -5 4 18 6 16 11 10 9 5 9 7 13 14 7 7 10 11 6 7 8 4 22 23 8 4 9 16 12 9 8 nan
nan 13 10 6 11 11 9 11 7 10 6 10 25 2 11 6 4 13 9 8 7 8 27 18 7 11 8 6 13 13 9 nan
nan 10 7 2 15 7 3 9 5 7 16 8 10 9 8 10 7 5 10 9 11 11 11 13 17 10 14 16 13 11 12 nan
nan 8 16 9 8 12 3 11 14 8 7 -1 8 21 11 6 9 7 7 8 9 11 8 9 11 10 20 12 4 13 7 nan
nan 11 14 16 16 5 15 25 7 17 11 -1 1 17 17 9 8 7 8 9 10 11 8 11 6 10 11 13 13 8 8 nan
nan 9 9 10 16 10 13 8 20 20 16 11 7 9 7 15 11 7 6 7 9 9 10 10 10 6 10 11 12 14 9 nan
nan 10 8 8 12 15 10 8 12 25 29 10 11 6 5 9 10 11 10 8 9 11 10 8 8 10 9 10 14 14 13 nan
nan 10 8 20 10 7 8 5 8 19 18 12 8 10 20 15 10 8 9 9 10 11 9 9 12 16 12 15 11 10 11 nan
nan 8 5 7 6 8 12 9 6 10 4 15 25 19 14 10 9 11 9 9 9 9 10 9 13 18 16 9 8 13 17 nan
nan 13 5 2 11 9 11 6 8 11 11 6 3 18 12 11 11 10 9 8 7 8 11 11 12 11 12 7 10 15 12 nan
nan 18 15 1 7 9 5 7 9 14 16 8 8 9 7 6 10 8 7 9 10 9 8 11 12 11 9 8 12 13 11 nan
nan 6 6 12 11 5 3 9 9 11 21 22 8 5 12 11 10 8 7 9 9 9 9 10 11 12 11 11 12 11 10 nan
nan 15 11 10 20 17 16 9 8 14 17 10 15 17 7 8 9 10 9 10 10 9 8 9 11 9 12 13 11 9 9 nan
nan 8 10 8 16 15 26 13 14 16 11 12 12 12 11 10 8 11 10 10 9 10 10 9 9 10 13 11 9 8 10 nan
nan nan nan nan nan nan nan nan nan nan nan nan nan nan nan nan nan nan nan nan nan nan nan nan nan nan nan nan nan nan nan nan
CAPE
0 0 0 0 162 153 145 29 36 130 27 11 100 151 179 108 402 550 236 202 4 172 554 608 821 845 1629 2287 2328 2068 1770 2316
37 0 0 29 72 81 98 4 121 99 0 0 10 10 265 48 36 55 369 293 241 91 283 554 784 838 1046 2192 2437 2258 1784 1818
14 102 113 367 235 12 69 136 190 139 35 31 9 172 350 328 213 228 184 255 615 506 90 570 432 678 790 1624 2333 2235 1870 1584
34 67 117 100 0 0 222 173 145 45 78 68 405 636 285 66 418 264 185 158 121 121 301 294 782 757 761 1163 1797 1808 1685 2077
10 5 27 104 31 13 25 2 213 177 31 66 0 594 469 40 5 96 99 9 35 97 207 1032 1152 2252 389 952 1324 1666 2013 1582
1 43 45 21 22 120 17 34 144 42 4 0 81 862 885 9 314 395 22 14 22 73 430 1331 1387 2832 847 695 1136 1732 1443 1586
0 46 48 16 8 93 42 62 10 41 37 355 1 268 650 773 468 588 241 397 552 239 30 870 1353 2068 2652 2202 527 2756 2372 2175
0 1 8 36 11 25 45 0 1 67 189 0 0 636 478 271 400 210 61 91 58 662 66 403 571 864 2245 2808 3043 3371 3053 2793
26 46 17 29 44 25 47 43 63 260 431 0 0 0 398 142 93 18 8 27 13 46 232 460 574 545 411 1125 1785 1941 2619 2126
2 0 9 46 48 30 29 53 81 407 354 0 0 301 335 210 138 31 2 6 15 33 134 258 373 218 295 220 454 1476 1555 1773
0 3 4 14 117 86 97 53 4 30 393 98 262 412 188 177 153 70 33 15 39 71 83 45 52 137 269 303 554 762 985 1278
0 1 5 126 119 60 27 11 385 219 311 403 51 360 505 217 172 117 63 74 81 53 42 2 5 24 455 647 521 1016 1030 846
10 5 2 214 113 44 27 229 479 326 0 143 461 399 509 350 188 184 79 123 128 65 4 1 1 173 418 400 409 641 1103 996
43 59 49 146 71 57 374 191 242 460 142 543 287 315 607 583 348 210 169 166 44 56 34 3 0 0 2 4 9 93 194 108
34 25 454 194 129 41 37 75 46 225 262 465 1 57 656 687 485 325 178 106 83 55 57 24 8 0 2 3 4 7 5 5
43 57 10 11 63 57 87 98 123 159 473 866 701 559 567 577 512 335 220 122 77 64 54 64 36 6 3 3 2 4 4 3
111 79 109 44 101 221 136 184 292 386 749 816 619 661 574 540 581 302 218 192 106 56 37 30 66 7 5 6 4 3 3 3
19 450 313 314 159 187 185 359 578 707 1101 973 872 768 565 520 392 275 268 172 231 69 41 9 3 4 10 5 0 2 2 2
172 13 69 185 304 4 0 78 606 1203 1344 983 819 749 590 527 437 241 125 133 14 79 3 7 0 12 0 0 0 0 0 0